Location: Killam
(52.7910°N, 111.8608°W)
Time: 00:27:22
(UTC+00:00)

AO-85 - Visible Passes

Search period start: 07 December 2023 00:00
Search period end: 17 December 2023 00:00
Orbit: 516 x 753 km, 64.8° (Epoch: 04 January)

Date Brightness Start Highest point End Pass type
(mag) Time Alt. Az. Time Alt. Az. Time Alt. Az.
07 Dec ? 01:23:11 10° NNW 01:26:41 24° NNE 01:26:41 24° NNE visible
07 Dec ? 03:03:00 10° NW 03:03:59 17° NW 03:03:59 17° NW visible
08 Dec ? 00:02:44 10° NW 00:05:40 18° N 00:08:43 10° NE visible
08 Dec ? 01:42:54 10° NW 01:46:08 31° N 01:46:08 31° N visible
08 Dec ? 03:22:48 10° NW 03:23:26 14° NW 03:23:26 14° NW visible
09 Dec ? 00:22:41 10° NNW 00:25:57 20° NNE 00:28:20 14° NE visible
09 Dec ? 02:02:35 10° NW 02:05:38 38° N 02:05:38 38° N visible
09 Dec ? 03:42:45 10° NW 03:42:56 11° WNW 03:42:56 11° WNW visible
10 Dec ? 00:42:27 10° NNW 00:46:09 26° NNE 00:47:54 20° ENE visible
10 Dec ? 02:22:17 10° NW 02:25:13 41° NW 02:25:13 41° NW visible
11 Dec ? 01:02:09 10° NW 01:06:15 36° NNE 01:07:36 29° ENE visible
11 Dec ? 02:42:05 10° NW 02:44:55 36° WNW 02:44:55 36° WNW visible
12 Dec ? 01:21:49 10° NW 01:26:12 55° NE 01:27:27 41° E visible
12 Dec ? 03:02:04 10° WNW 03:04:47 27° W 03:04:47 27° W visible
13 Dec ? 00:01:41 10° NNW 00:05:28 27° NNE 00:09:28 10° E visible
13 Dec ? 01:41:31 10° NW 01:46:02 90° SSW 01:47:32 44° SE visible
13 Dec ? 03:22:28 10° WNW 03:24:53 18° WSW 03:24:53 18° WSW visible
14 Dec ? 00:21:20 10° NW 00:25:31 39° NE 00:29:57 10° ESE visible
14 Dec ? 02:01:19 10° NW 02:05:44 51° SW 02:07:57 28° S visible
15 Dec ? 00:40:59 10° NW 00:45:26 61° NE 00:50:11 10° ESE visible
15 Dec ? 02:21:20 10° WNW 02:25:18 29° WSW 02:28:59 12° S visible
16 Dec ? 01:00:41 10° NW 01:05:13 81° SW 01:10:03 10° SE visible
16 Dec ? 02:41:51 10° WNW 02:44:43 16° WSW 02:47:39 10° SSW visible
